Location: Unspecified
(40.7945°N, 111.1337°W)
Time: 17:30:34
(UTC-06:00)

CZ-3 Stage 3 - Visible Passes

Search period start: 20 May 2018 00:00
Search period end: 30 May 2018 00:00
Orbit: 423 x 34772 km, 30.9° (Epoch: 20 May)

Date Brightness Start Highest point End Pass type
(mag) Time Alt. Az. Time Alt. Az. Time Alt. Az.
20 May 9.5 00:39:17 10° SE 05:51:01 47° SE 06:42:13 10° E visible
22 May 7.4 02:02:10 13° S 09:58:40 66° S 10:13:07 10° E visible
23 May 9.5 00:24:39 10° SE 05:40:42 48° SE 06:32:41 10° E visible
25 May 7.4 02:00:26 15° S 09:48:56 67° S 10:03:32 10° E visible
26 May 9.4 00:10:03 10° SE 05:30:19 49° SE 06:23:06 10° E visible
28 May 7.5 01:58:38 17° S 09:39:08 67° S 09:53:55 10° E visible
28 May 9.3 23:55:28 10° SE 05:19:52 50° SE 06:13:30 10° E visible
